[[{"header":{"parameterUnit":"m.s-1","parameterCategory":1,"la1":30.2991,"la2":30.254,"lo1":-89.0895,"lo2":-89.0444,"dy":0.0017,"dx":0.0017,"nx":28,"ny":28,"refTime":"2024-02-29T03:00:00:Z","depth":0,"parameterNumber":2,"parameterNumberName":"U-component_of_WINDS"},"data":[0,0,0,0,0,0,0,0,0,0,0,0,0,0,0,0,0,0,0,0,0,0,0,0,0,0,0,0,0,0,0,0,0,0,0,0,0,0,0,0,0,0,0,0,0,0,0,0,0,0,0,0,0,0,0,0,0,0,-7.8582,-7.8584,0,-7.8737,-7.8738,-7.874,-7.8713,-7.871,-7.8708,-7.8705,-7.8857,-7.8863,-7.887,0,0,0,0,0,0,0,0,0,0,0,0,0,-7.8259,-7.8265,-7.8582,-7.8584,-7.8586,-7.8736,-7.8739,-7.8741,-7.8714,-7.871,-7.8707,-7.8704,-7.8855,-7.8863,-7.887,0,0,0,0,0,0,0,0,0,0,0,0,0,-7.8405,-7.8267,-7.8582,-7.8591,-7.8593,-7.8736,-7.8739,-7.8741,-7.8714,-7.871,-7.8706,-7.8702,-7.8852,-7.8862,-7.8872,-7.9013,0,0,-7.8902,-7.8906,0,0,0,0,0,0,0,0,-7.8397,-7.8417,-7.8588,-7.8591,-7.8593,-7.8702,-7.868,-7.8832,-7.8715,-7.8668,-7.8705,-7.87,-7.8808,-7.8821,-7.8859,-7.902,-7.9027,-7.8902,-7.8908,-7.8913,-7.8915,0,0,0,0,0,0,0,-7.8387,-7.841,-7.8643,-7.859,-7.8594,-7.8586,-7.8602,-7.8709,-7.8759,-7.8672,-7.867,-7.8689,-7.8809,-7.885,-7.8862,-7.9029,-7.8902,-7.8911,-7.8917,-7.8921,-7.9313,-7.9317,0,0,0,0,0,0,-7.8375,-7.8402,-7.8638,-7.8648,-7.8483,-7.8595,-7.8613,-7.8671,-7.8758,-7.8767,-7.8693,-7.8688,-7.8835,-7.8851,-7.8868,-7.9037,-7.8913,-7.8922,-7.8927,-7.9308,-7.9314,-7.9318,0,0,0,0,0,0,-7.8368,-7.8396,-7.8632,-7.8525,-7.8554,-7.8605,-7.867,-7.8676,-7.8717,-7.8773,-7.8781,-7.8725,-7.8832,-7.8854,-7.8977,-7.9041,-7.8926,-7.8935,-7.9303,-7.931,-7.9316,-7.9377,0,0,0,0,0,0,-7.8359,-7.8394,-7.8449,-7.8526,-7.856,-7.874,-7.8674,-7.8682,-7.8734,-7.8729,-7.8806,-7.8815,-7.8831,-7.8963,-7.8987,-7.9053,-7.8943,-7.9297,-7.9306,-7.9314,-7.9369,-7.9385,-7.9399,0,0,0,0,0,-7.8347,-7.8459,-7.8452,-7.848,-7.863,-7.8744,-7.8763,-7.8781,-7.874,-7.8794,-7.8831,-7.8812,-7.9032,-7.8976,-7.9003,-7.9072,-7.9293,-7.9303,-7.9313,-7.9363,-7.9382,-7.9398,0,0,0,0,0,0,-7.8384,-7.8469,-7.8462,-7.8602,-7.8667,-7.8739,-7.8809,-7.8801,-7.8876,-7.8868,-7.8886,-7.8903,-7.9028,-7.9064,-7.8999,-7.9214,-7.9156,-7.9172,-7.9185,-7.9203,-7.9218,-7.9204,-7.8951,0,0,0,0,0,-7.841,-7.8497,-7.8566,-7.8683,-7.8716,-7.8757,-7.8808,-7.8816,-7.8883,-7.8909,-7.8955,-7.9018,-7.9101,-7.9155,-7.9235,-7.9377,-7.9391,-7.9438,-7.9453,-7.9465,-7.9476,-7.9552,-7.9572,-7.9352,-7.9352,-7.9352,0,0,-7.8461,-7.8518,-7.8572,-7.8692,-7.8742,-7.883,-7.878,-7.8875,-7.894,-7.8923,-7.9041,-7.9078,-7.915,-7.9283,-7.9343,-7.9316,-7.9542,-7.9478,-7.9486,-7.9492,-7.9564,-7.9585,-7.9603,-7.9359,-7.9357,-7.9356,0,0,-7.8599,-7.8653,-7.8755,-7.8808,-7.8887,-7.8914,-7.8939,-7.9015,-7.9038,-7.9159,-7.9148,-7.9225,-7.9369,-7.942,-7.9465,-7.9626,-7.961,-7.9652,-7.9725,-7.9799,-7.9816,-7.9831,-7.9885,-7.9905,-7.9665,-7.9665,-7.9665,0,-7.8651,-7.8785,-7.8808,-7.8905,-7.8957,-7.895,-7.9052,-7.9102,-7.9202,-7.9237,-7.9207,-7.9387,-7.9435,-7.9579,-7.9618,-7.9657,-7.9683,-7.964,-7.9812,-7.9828,-7.9842,-7.9894,-7.9914,-7.9669,-7.9669,-7.9668,-7.9668,0,-7.8845,-7.8938,-7.9011,-7.911,-7.9172,-7.9271,-7.9307,-7.9366,-7.9371,-7.9401,-7.9524,-7.9583,-7.9673,-7.9709,-7.9714,-7.9854,-7.9834,-7.9809,-7.975,-7.9867,-7.9915,-7.9936,-7.9675,-7.9674,-7.9673,-7.9672,0,0,-7.9004,-7.9118,-7.9143,-7.9188,-7.9276,-7.9348,-7.9448,-7.9539,-7.9587,-7.9659,-7.974,-7.9863,-7.984,-7.9892,-7.9903,-7.9968,-8.0088,-7.9934,-7.9936,-7.9957,-8.0242,-8.0257,-8.0279,-8.0081,-8.0085,-8.0088,-8.0234,0,-7.9146,-7.9323,-7.9347,-7.9502,-7.9587,-7.9584,-7.967,-7.9732,-7.9765,-7.984,-7.9876,-7.9961,-7.9927,-7.9957,-8.0022,-8.006,-8.0145,-8.005,-8.0153,-8.0156,-8.0129,-8.0305,-8.0321,-8.0456,-8.0254,-8.0257,-8.0259,0,-7.9334,-7.9412,-7.9576,-7.9653,-7.969,-7.9767,-7.9852,-7.9927,-7.9998,-8.0016,-8.0076,-8.008,-8.018,-8.0123,-8.0261,-8.0196,-8.0241,-8.0266,-8.0272,-8.0277,-8.021,-8.031,-8.0499,-8.0517,-8.029,-8.0288,-8.0286,0,-7.9428,-7.9575,-7.9691,-7.9731,-7.9825,-7.9878,-7.992,-7.9987,-8.0041,-8.0117,-8.0151,-8.0237,-8.0282,-8.0348,-8.0375,-8.0331,-8.051,-8.0455,-8.0525,-8.0524,-8.0557,-8.0554,-8.0751,-8.0596,-8.0595,-8.0595,-8.0595,0,-7.9581,-7.968,-7.9735,-7.9806,-7.9917,-7.9945,-8.0054,-8.0093,-8.0154,-8.0231,-8.0235,-8.0307,-8.034,-8.0417,-8.0439,-8.0548,-8.057,-8.0586,-8.0589,-8.0582,-8.058,-8.0607,-8.0596,-8.06,-8.0599,-8.0598,-8.0597,0,-7.9702,-7.9743,-7.9869,-7.995,-7.9973,-8.005,-8.0118,-8.0186,-8.022,-8.0318,-8.0342,-8.0394,-8.0485,-8.052,-8.0631,-8.0646,-8.077,-8.0769,-8.0746,-8.0746,-8.0812,-8.0803,-8.1029,-8.1058,-8.0888,-8.089,-8.0891,0,-7.9793,-7.987,-7.996,-8.0013,-8.0057,-8.0143,-8.0198,-8.023,-8.0287,-8.0376,-8.0433,-8.0525,-8.0598,-8.0744,-8.079,-8.0875,-8.0872,-8.0946,-8.0885,-8.0875,-8.0868,-8.0861,-8.0867,-8.0955,-8.0957,-8.0958,-8.0959,0,-7.995,-7.9968,-8.0049,-8.0138,-8.0205,-8.0276,-8.0344,-8.0388,-8.043,-8.0494,-8.0589,-8.0647,-8.0761,-8.0851,-8.0939,-8.0979,-8.0975,-8.098,-8.0999,-8.099,-8.0971,-8.0978,-8.0771,-8.0972,-8.0971,-8.097,-8.0969,-8.0969,-8.0056,-8.0123,-8.0197,-8.0287,-8.0344,-8.0409,-8.0476,-8.052,-8.06,-8.0697,-8.0712,-8.0812,-8.0882,-8.1,-8.1045,-8.1123,-8.1103,-8.1133,-8.1139,-8.1145,-8.1147,-8.0965,-8.114,-8.114,-8.1139,-8.1139,-8.1139,0,-8.0209,-8.0258,-8.0341,-8.0438,-8.0509,-8.0505,-8.0581,-8.064,-8.0729,-8.0796,-8.087,-8.0978,-8.1066,-8.1122,-8.121,-8.1261,-8.1261,-8.1283,-8.1276,-8.1285,-8.1162,-8.1134,-8.1281,-8.1281,-8.1281,-8.1281,-8.1281,-8.1281,-8.0296,-8.0409,-8.0436,-8.0577,-8.0625,-8.0725,-8.0769,-8.0828,-8.0882,-8.1003,-8.1077,-8.1114,-8.1176,-8.1269,-8.1349,-8.1363,-8.1393,-8.1415,-8.1426,-8.1309,-8.1294,-8.128,-8.1253,-8.1423,-8.1423,-8.1543,-8.1544,-8.1544]},{"header":{"parameterUnit":"m.s-1","parameterCategory":1,"la1":30.2991,"la2":30.254,"lo1":-89.0895,"lo2":-89.0444,"dy":0.0017,"dx":0.0017,"nx":28,"ny":28,"refTime":"2024-02-29T03:00:00:Z","depth":0,"parameterNumber":3,"parameterNumberName":"V-component_of_WINDS"},"data":[0,0,0,0,0,0,0,0,0,0,0,0,0,0,0,0,0,0,0,0,0,0,0,0,0,0,0,0,0,0,0,0,0,0,0,0,0,0,0,0,0,0,0,0,0,0,0,0,0,0,0,0,0,0,0,0,0,0,3.592,3.592,0,3.5992,3.5992,3.5993,3.5975,3.5974,3.5972,3.5971,3.6041,3.6044,3.6047,0,0,0,0,0,0,0,0,0,0,0,0,0,3.5764,3.5767,3.5919,3.592,3.5921,3.5991,3.5992,3.5993,3.5975,3.5974,3.5972,3.597,3.604,3.6043,3.6047,0,0,0,0,0,0,0,0,0,0,0,0,0,3.5833,3.5768,3.5919,3.5921,3.5922,3.5991,3.5992,3.5994,3.5976,3.5973,3.5971,3.5969,3.6038,3.6043,3.6048,3.6119,0,0,3.6062,3.6064,0,0,0,0,0,0,0,0,3.5829,3.5839,3.592,3.5921,3.5922,3.5972,3.5963,3.6036,3.5976,3.5955,3.5971,3.5968,3.6019,3.6025,3.6043,3.6122,3.6125,3.6062,3.6065,3.6067,3.6069,0,0,0,0,0,0,0,3.5825,3.5836,3.5948,3.5921,3.5922,3.5917,3.5925,3.5977,3.5998,3.5957,3.5955,3.5965,3.6019,3.6039,3.6045,3.6126,3.6062,3.6067,3.6069,3.6071,3.627,3.6272,0,0,0,0,0,0,3.5819,3.5832,3.5946,3.595,3.587,3.5922,3.593,3.5958,3.5997,3.6001,3.5966,3.5963,3.6032,3.6039,3.6047,3.6135,3.6067,3.6072,3.6075,3.6267,3.627,3.6273,0,0,0,0,0,0,3.5816,3.583,3.5943,3.5891,3.5905,3.5927,3.5958,3.5961,3.598,3.6005,3.6008,3.5982,3.603,3.6041,3.6102,3.6137,3.6074,3.6078,3.6264,3.6268,3.6271,3.6309,0,0,0,0,0,0,3.5812,3.5829,3.5856,3.5892,3.5908,3.5997,3.596,3.5964,3.5989,3.5986,3.6021,3.6024,3.603,3.6095,3.6107,3.6142,3.6082,3.6261,3.6266,3.627,3.6305,3.6314,3.6321,0,0,0,0,0,3.5806,3.5862,3.5858,3.5871,3.5943,3.5999,3.6008,3.6014,3.5992,3.602,3.6036,3.6023,3.6132,3.6102,3.6115,3.6152,3.6259,3.6265,3.627,3.6301,3.6312,3.6321,0,0,0,0,0,0,3.5828,3.5867,3.5862,3.5932,3.5962,3.5996,3.6031,3.6025,3.6061,3.6057,3.6061,3.607,3.6133,3.6148,3.6114,3.6224,3.6192,3.62,3.6211,3.6222,3.623,3.6224,3.6086,0,0,0,0,0,3.5842,3.5885,3.5916,3.5974,3.599,3.6008,3.6033,3.6035,3.6067,3.6079,3.6099,3.6129,3.6171,3.6197,3.6236,3.6308,3.6315,3.634,3.6348,3.6355,3.6362,3.6402,3.6414,3.6291,3.629,3.629,0,0,3.5868,3.5895,3.5922,3.598,3.6004,3.6048,3.6019,3.6066,3.6099,3.6086,3.6146,3.6162,3.6196,3.6264,3.6294,3.6279,3.6398,3.6362,3.6367,3.637,3.6409,3.6421,3.6431,3.6294,3.6294,3.6293,0,0,3.5941,3.5965,3.6018,3.6043,3.6081,3.6093,3.6106,3.6141,3.6152,3.6213,3.6204,3.6243,3.6313,3.6339,3.636,3.6446,3.6436,3.6459,3.6501,3.654,3.655,3.6559,3.659,3.6601,3.6466,3.6466,3.6466,0,3.5969,3.6037,3.6045,3.6094,3.612,3.6113,3.6166,3.619,3.6238,3.6256,3.6238,3.6328,3.635,3.6424,3.6446,3.6464,3.6478,3.6454,3.6548,3.6557,3.6565,3.6595,3.6607,3.6468,3.6468,3.6468,3.6467,0,3.607,3.6118,3.6155,3.6204,3.6235,3.6286,3.6301,3.6331,3.6332,3.6346,3.6409,3.6436,3.6481,3.6499,3.6499,3.6574,3.6563,3.6547,3.6514,3.6579,3.6607,3.6619,3.6472,3.6471,3.647,3.647,0,0,3.6155,3.6212,3.6225,3.6248,3.6291,3.6327,3.6379,3.6425,3.6451,3.6485,3.6528,3.6589,3.6576,3.6601,3.6604,3.6639,3.6707,3.6619,3.662,3.6634,3.6792,3.6804,3.6817,3.6701,3.6703,3.6705,3.6789,0,3.6232,3.6324,3.6334,3.6415,3.646,3.6455,3.65,3.6531,3.6546,3.6585,3.6601,3.6645,3.6623,3.6639,3.6673,3.6691,3.6738,3.6685,3.6741,3.6743,3.6732,3.6831,3.6843,3.6921,3.68,3.6802,3.6803,0,3.6332,3.6372,3.6459,3.6498,3.6517,3.6557,3.6602,3.664,3.6675,3.6684,3.6714,3.6713,3.6766,3.6733,3.6806,3.677,3.6794,3.6806,3.681,3.6814,3.6776,3.6839,3.6946,3.6958,3.6821,3.6819,3.6818,0,3.6387,3.6462,3.6524,3.6544,3.6591,3.662,3.6641,3.6674,3.6703,3.6741,3.676,3.6803,3.6827,3.6861,3.6872,3.6847,3.6946,3.6913,3.6954,3.6954,3.6974,3.6972,3.7087,3.699,3.699,3.6989,3.6989,0,3.6471,3.6524,3.655,3.6588,3.6648,3.666,3.6718,3.6738,3.6768,3.681,3.6808,3.6847,3.686,3.6901,3.691,3.697,3.6981,3.6989,3.6991,3.6989,3.6988,3.7004,3.6999,3.6993,3.6992,3.6991,3.6991,0,3.6541,3.656,3.6628,3.6668,3.668,3.6722,3.6757,3.6793,3.6809,3.6862,3.6875,3.69,3.6949,3.6964,3.7022,3.7028,3.7099,3.7095,3.7087,3.7087,3.7128,3.7124,3.7256,3.7274,3.7165,3.7166,3.7167,0,3.6593,3.6634,3.668,3.6709,3.6732,3.6778,3.6807,3.6821,3.6852,3.6897,3.6929,3.6978,3.7017,3.7096,3.7118,3.7163,3.7161,3.7204,3.7167,3.7165,3.7162,3.7159,3.7164,3.7211,3.7212,3.7213,3.7213,0,3.6683,3.6692,3.6735,3.6783,3.6819,3.6857,3.6893,3.6916,3.6936,3.697,3.7021,3.7053,3.7114,3.7162,3.7209,3.7229,3.7225,3.7225,3.7237,3.7236,3.723,3.7234,3.7106,3.7222,3.7221,3.722,3.722,3.722,3.6746,3.6784,3.6823,3.6872,3.6901,3.6936,3.6974,3.6996,3.7039,3.7091,3.7097,3.7152,3.7188,3.7251,3.7274,3.7317,3.7305,3.7322,3.7326,3.733,3.7334,3.7223,3.7326,3.7325,3.7325,3.7325,3.7325,0,3.6837,3.6863,3.6908,3.6961,3.7,3.6995,3.7035,3.7068,3.7117,3.7153,3.7193,3.7253,3.7301,3.7328,3.7376,3.7406,3.7405,3.7418,3.7415,3.7421,3.7342,3.7327,3.7418,3.7418,3.7418,3.7418,3.7418,3.7418,3.6889,3.6953,3.6966,3.7045,3.707,3.7126,3.715,3.7182,3.7211,3.7278,3.7319,3.7338,3.737,3.7421,3.7465,3.7472,3.749,3.7504,3.7509,3.7435,3.7426,3.7417,3.7403,3.7508,3.7508,3.7584,3.7585,3.7586]}]]